GFSSW_925_temp_021.txt.gz
Temp
18 18 18 18 19 19 19 20 20 20 20 21 21 21 21 22 22 21 20 23 24 23 23 23 22 23 24 23 24 22 18 20 24 25 25 25 25 25 25 25 24 25 25 25 25
17 17 17 17 17 18 19 19 20 20 20 20 21 21 21 21 21 20 23 23 23 23 22 22 22 23 20 23 21 19 17 22 24 24 24 23 23 22 24 21 21 22 23 25 24
15 15 16 16 16 17 17 18 19 19 19 20 20 20 21 21 20 23 23 23 23 23 23 23 24 23 22 22 22 21 19 22 23 23 24 23 22 22 22 21 21 21 22 22 24
14 14 15 15 16 16 17 18 18 18 20 20 20 20 21 21 23 23 23 23 23 22 23 23 23 22 22 22 22 22 21 23 22 22 22 23 23 20 21 21 21 20 21 22 21
14 14 15 15 15 16 16 17 18 18 19 20 20 20 20 20 20 22 23 23 23 22 22 22 22 22 21 22 22 23 22 22 21 20 20 21 21 21 20 21 19 20 21 20 21
14 14 15 15 15 15 16 17 17 18 19 20 20 19 19 19 21 21 21 22 21 21 22 22 22 22 22 23 22 21 20 20 20 20 20 21 20 22 21 20 20 21 20 20 19
14 14 14 15 15 16 16 17 18 18 19 19 19 19 18 19 20 20 20 20 21 21 21 22 22 22 20 21 21 21 21 19 19 20 20 20 21 20 20 20 20 20 19 19 15
13 14 14 14 15 15 16 17 17 18 18 19 18 17 18 20 19 19 19 20 20 20 20 21 22 21 21 21 20 21 20 19 21 22 21 21 20 21 20 20 20 20 18 14 13
13 13 14 14 15 16 16 17 17 17 17 17 16 17 18 19 19 19 19 19 19 20 20 21 21 19 20 18 17 18 18 18 20 21 20 21 19 20 20 20 20 17 15 13 12
13 13 14 14 15 16 16 17 17 16 16 16 16 17 18 19 18 18 19 19 19 18 18 19 16 16 15 15 16 18 18 19 19 21 20 19 17 18 19 19 20 14 12 12 11
13 13 13 14 15 15 16 16 16 16 15 18 19 19 19 17 18 18 18 19 18 18 16 17 15 15 16 16 18 19 19 18 18 20 20 19 18 19 19 18 18 13 12 11 10
13 14 14 14 15 15 15 16 15 15 15 17 17 18 19 18 17 16 18 17 17 17 17 16 15 17 18 18 18 18 18 17 18 19 20 18 18 18 18 19 17 14 11 11 10
14 13 13 14 14 15 16 15 15 14 14 17 17 18 17 18 17 16 16 17 17 17 16 15 18 18 19 19 18 18 18 18 17 18 18 19 16 18 19 15 14 12 11 10 9
13 13 13 13 14 15 15 15 14 14 14 17 17 16 16 17 16 16 17 17 18 16 16 16 18 18 17 17 18 18 18 18 18 17 16 17 14 17 17 13 12 11 9 8 8
13 13 13 13 14 15 15 15 14 13 15 18 16 16 17 16 15 15 16 17 16 17 17 17 17 17 18 18 17 17 17 18 18 16 16 16 14 15 15 14 12 10 9 8 7
13 13 13 13 13 14 15 14 14 16 14 17 15 15 16 17 16 15 15 16 16 17 17 16 17 18 17 18 18 17 18 17 15 14 12 14 15 15 16 15 11 10 9 8 7
13 13 12 12 13 14 14 13 15 14 18 16 16 16 16 16 15 15 14 14 14 15 15 17 16 17 18 18 16 17 15 13 12 11 13 15 14 16 16 14 12 9 7 6 6
12 12 12 12 12 12 13 13 14 15 15 17 17 17 17 17 16 16 16 15 15 17 15 15 16 16 16 17 16 15 16 13 13 12 12 14 14 16 10 10 9 8 7 6 6
11 11 11 11 11 12 12 13 14 15 17 16 16 16 17 17 17 16 15 15 17 16 16 15 16 16 16 17 17 16 15 15 13 8 10 13 15 11 10 9 8 8 7 6 6
11 10 10 11 11 11 12 13 14 15 17 17 16 17 16 16 16 14 15 16 15 15 16 15 15 15 15 16 16 16 14 13 11 10 9 12 13 14 10 9 8 7 6 6 6
10 9 9 10 10 11 12 13 15 16 16 16 15 16 16 16 15 15 16 16 15 14 14 15 14 14 14 14 14 14 13 14 13 11 11 9 12 12 11 9 7 7 6 5 5
8 10 8 10 10 10 11 12 14 14 15 15 15 14 14 16 15 14 14 15 14 13 13 13 12 9 12 13 13 13 13 13 10 11 9 11 13 11 9 8 8 7 7 5 5
8 8 9 9 10 10 11 12 13 13 13 13 13 14 14 14 13 13 14 12 13 13 13 12 10 7 9 11 12 12 12 11 11 9 10 10 9 8 8 8 7 6 6 5 4
7 8 8 9 10 10 11 11 12 12 13 13 13 13 13 12 13 13 12 11 11 10 11 12 10 8 10 10 10 9 9 9 10 6 7 9 10 11 10 7 7 5 5 4 4
7 7 9 8 9 9 10 11 11 11 12 12 12 12 12 12 11 11 12 10 10 10 10 10 6 9 9 9 9 9 8 8 8 9 7 10 9 10 10 7 7 6 5 4 4
5 5 6 7 9 9 9 9 10 11 11 11 11 11 11 11 11 8 10 10 10 8 9 9 5 7 4 7 7 7 7 7 7 7 7 8 8 9 6 6 6 5 5 5 4
3 4 5 7 7 8 9 10 10 10 9 10 11 10 10 7 6 6 6 6 7 7 7 6 4 0 2 6 4 2 6 7 7 7 7 6 6 1 4 5 4 4 5 4 5

GFSSW_925_temp_024.txt.gz
Temp
18 19 19 19 19 20 20 20 20 20 20 21 21 21 21 21 22 21 20 23 23 23 23 23 23 23 23 21 22 19 18 19 23 23 24 22 23 23 22 24 22 24 24 23 24
18 18 18 19 19 19 19 19 19 20 20 20 20 20 21 21 21 19 22 23 23 23 22 22 21 22 19 21 20 18 16 20 23 23 23 23 23 22 22 19 21 22 22 24 23
16 16 17 17 17 17 18 18 18 19 19 20 20 20 20 20 20 23 22 22 22 22 22 22 23 22 22 21 21 19 19 20 22 22 22 22 21 21 22 21 20 20 20 21 22
15 15 15 16 16 16 17 17 18 18 19 19 20 20 20 20 23 23 23 23 22 22 22 22 22 21 21 21 21 21 20 21 22 22 21 22 21 20 20 21 21 18 18 19 18
14 14 15 15 15 16 16 17 17 18 19 19 19 20 20 20 20 22 23 23 22 21 22 21 21 20 21 21 21 20 21 21 21 19 19 21 20 20 19 19 18 18 18 15 13
14 14 14 15 15 16 16 16 17 17 18 19 19 19 19 19 21 21 22 22 21 21 21 21 21 20 21 21 21 20 20 20 19 19 20 21 20 21 21 20 19 18 14 11 11
14 14 14 14 15 15 16 16 17 17 18 19 18 18 17 19 20 20 20 21 20 21 20 21 21 21 20 21 21 21 20 18 19 20 20 18 21 20 20 18 18 16 11 10 10
13 14 14 14 15 15 16 16 17 17 17 19 18 17 17 19 19 19 19 19 20 20 20 21 22 20 21 20 19 20 19 18 21 20 20 21 19 21 20 19 17 12 9 9 9
13 13 14 14 15 15 16 16 17 16 16 17 16 17 18 19 18 18 19 19 19 19 20 21 21 19 18 16 16 17 17 17 19 20 20 21 19 20 19 19 13 10 10 9 8
13 13 14 14 14 15 16 16 17 16 15 15 16 17 17 18 18 18 19 19 18 18 18 18 14 15 14 15 16 17 17 17 18 20 20 19 17 17 18 17 13 10 9 8 8
13 13 14 14 14 14 16 16 15 15 14 17 18 18 18 17 18 18 18 19 18 17 16 17 15 15 16 15 18 18 17 17 17 18 19 18 18 17 18 18 12 10 9 8 8
13 13 14 13 14 14 14 14 15 15 15 16 15 17 18 18 16 16 18 17 17 16 15 15 15 16 17 16 16 16 16 16 17 17 19 17 17 17 16 14 12 10 9 8 7
13 13 13 13 14 14 15 16 15 15 14 15 16 17 17 17 17 16 16 16 16 15 14 15 17 16 17 17 16 16 16 17 17 17 17 17 16 17 13 11 10 9 8 7 6
13 13 13 13 13 15 15 15 15 15 14 16 16 16 16 16 16 15 16 16 16 16 15 15 16 17 17 17 17 16 16 17 16 16 15 17 14 15 15 11 10 8 6 6 5
13 13 13 13 14 14 15 15 15 15 15 17 15 16 16 16 15 15 15 16 16 16 16 16 17 17 17 17 16 17 17 17 18 16 15 15 14 14 12 11 9 7 6 6 5
13 13 13 13 12 14 15 15 15 15 14 16 15 15 15 16 15 14 15 15 16 16 16 15 16 17 17 16 16 16 17 14 12 12 12 14 14 14 14 14 9 7 6 6 5
13 13 13 13 13 14 14 14 14 14 16 15 15 14 15 14 14 14 14 13 13 14 14 16 16 17 17 17 16 16 14 13 12 11 13 14 12 14 10 11 9 7 5 5 5
13 13 13 13 13 13 13 13 14 15 14 16 15 14 15 15 15 14 13 14 13 15 13 15 16 15 15 16 16 14 14 12 13 11 12 12 13 14 8 7 7 6 5 5 5
12 12 11 12 13 12 13 14 14 15 15 15 16 15 15 16 16 15 13 13 15 13 16 13 15 15 16 16 16 15 14 14 12 4 9 12 11 10 8 7 6 6 6 5 4
11 11 11 11 11 11 13 14 14 15 16 16 15 15 14 15 15 14 14 14 16 14 15 15 15 15 15 16 14 15 14 12 10 10 9 11 12 12 8 7 7 6 5 5 4
11 11 9 10 10 11 13 13 13 15 16 16 15 15 15 15 15 13 15 15 14 14 14 14 15 13 14 13 13 13 13 13 12 10 9 8 11 12 10 8 7 6 6 4 4
8 11 9 9 11 11 11 12 13 14 15 14 14 14 14 15 14 13 14 15 13 12 13 13 12 9 12 13 12 14 12 12 10 10 9 10 12 11 10 8 7 6 6 5 4
9 8 8 9 12 11 11 12 13 13 13 13 14 13 14 14 14 13 14 12 12 12 12 12 10 6 9 12 12 12 11 11 9 7 7 9 10 9 8 8 7 6 5 5 4
8 9 8 9 9 12 11 11 12 12 13 13 13 13 12 12 13 13 12 11 11 11 12 12 9 9 12 11 10 10 9 9 10 6 7 9 9 10 8 7 7 6 5 4 3
7 8 9 9 9 10 11 12 11 11 12 12 11 12 12 11 11 11 11 10 10 10 11 11 10 8 9 10 9 9 9 8 8 8 8 10 8 10 9 7 6 6 5 3 3
6 6 6 7 9 10 10 9 11 12 11 10 11 11 11 12 11 10 11 10 10 9 9 9 6 7 5 7 8 7 8 7 7 8 7 8 8 9 7 6 5 5 4 3 3
3 3 5 6 7 8 9 8 9 10 8 10 11 10 10 11 9 7 7 7 9 8 7 7 4 3 5 4 5 2 4 7 8 7 7 7 7 2 5 5 4 3 4 3 3

GFSSW_925_temp_030.txt.gz
Temp
18 18 18 18 19 19 19 19 19 19 19 20 20 20 20 21 21 21 20 22 22 22 22 22 23 22 22 19 18 16 16 18 21 19 23 21 22 21 20 21 20 21 21 20 20
18 18 18 18 18 18 18 19 19 18 18 19 19 20 20 21 21 19 21 21 22 22 22 22 21 21 17 20 17 16 16 19 20 21 22 21 21 20 21 19 21 20 19 17 17
18 18 18 18 18 18 18 17 18 18 18 19 19 19 20 20 20 21 21 21 22 22 22 22 21 21 20 20 19 17 19 19 21 20 20 21 20 20 21 21 20 19 15 12 12
17 17 18 18 18 17 17 17 17 18 18 18 19 19 20 20 22 21 22 22 21 21 22 21 19 20 19 20 19 20 19 19 21 20 20 21 20 20 19 19 16 11 11 10 8
16 16 16 16 16 15 16 16 16 17 17 18 19 19 20 19 19 21 21 22 21 21 21 20 20 19 20 19 20 20 20 19 19 18 18 18 19 20 18 16 12 10 9 7 7
15 14 14 14 15 15 15 16 16 16 17 18 18 19 19 19 20 20 20 21 21 21 20 20 19 19 19 19 20 19 19 17 18 19 18 19 19 19 16 14 10 9 7 6 6
14 14 13 14 14 15 15 15 16 16 17 18 18 18 17 18 20 20 20 20 20 20 19 20 20 20 19 20 18 19 19 17 18 19 19 17 21 19 15 13 10 7 6 6 6
13 13 13 14 14 14 14 15 15 16 17 17 18 17 17 19 19 19 19 19 19 20 20 20 20 18 19 18 16 18 16 17 19 19 19 19 19 20 15 13 9 7 5 6 5
12 13 13 13 14 14 14 14 15 16 16 16 16 17 17 18 17 18 19 19 19 19 19 20 19 16 17 16 16 14 17 17 17 19 19 19 19 19 14 12 8 6 6 6 5
12 12 13 13 13 13 14 14 15 15 15 15 15 16 16 18 17 17 18 18 17 17 17 16 13 14 12 15 16 16 16 16 17 19 18 18 18 17 14 12 7 5 5 5 5
12 12 12 13 13 13 14 15 14 14 13 16 17 17 17 16 17 17 17 18 17 16 16 15 15 14 15 15 17 16 16 17 17 17 18 16 15 16 12 8 6 6 5 5 5
12 12 13 13 12 12 12 13 15 16 15 15 14 15 17 17 16 16 17 17 17 16 14 14 14 15 16 14 16 16 16 15 15 15 16 15 15 15 10 9 7 6 5 5 4
12 12 12 12 12 12 12 14 16 16 14 15 13 14 15 16 17 15 15 15 15 13 13 14 17 14 16 15 14 14 14 14 16 16 15 15 14 12 8 7 6 6 5 5 4
12 12 12 12 12 13 12 15 15 16 14 15 15 15 15 15 16 14 15 15 15 15 13 14 15 16 14 15 14 14 14 15 16 15 14 15 14 14 9 7 6 5 4 4 3
12 12 12 12 13 12 15 16 15 16 14 15 14 15 14 15 13 14 15 15 14 14 14 15 14 14 14 15 15 15 14 14 15 13 14 14 13 12 9 9 6 5 4 3 3
12 12 12 12 12 13 14 15 16 16 14 15 13 13 14 14 13 13 14 14 14 14 14 14 15 14 15 14 14 13 13 12 10 11 11 14 14 13 10 11 7 5 4 3 2
12 12 12 12 13 13 13 14 14 14 16 14 13 12 13 13 13 13 12 13 12 13 13 14 14 15 15 14 15 14 14 13 12 11 12 12 11 13 12 9 8 6 4 3 2
12 12 12 12 12 13 12 13 14 16 14 13 13 12 13 13 13 12 11 12 12 13 11 13 14 13 13 15 14 13 14 12 13 11 12 11 11 14 8 6 5 6 4 3 2
12 12 11 11 12 13 11 14 15 15 15 13 14 13 12 13 13 12 11 11 12 11 15 12 15 14 14 14 15 13 13 13 11 2 8 12 12 9 7 6 4 4 4 3 2
11 12 12 12 12 11 12 15 15 16 14 15 16 14 12 12 13 12 11 12 14 12 14 14 15 13 13 14 13 14 12 13 10 11 9 12 11 14 9 7 4 4 4 3 2
12 12 13 12 12 12 14 14 15 15 16 16 16 14 13 13 13 11 13 14 13 11 13 13 15 13 13 13 12 12 12 12 12 10 11 9 13 10 10 7 5 5 5 4 3
11 13 11 12 13 13 14 15 14 14 14 15 15 15 14 13 13 12 13 14 12 12 13 13 12 9 12 11 11 12 12 11 13 11 7 9 14 7 9 7 7 6 5 4 3
10 9 9 11 14 14 13 14 14 13 14 13 14 15 14 14 14 12 12 12 12 13 13 12 11 8 10 12 10 11 10 10 8 7 7 13 12 8 6 6 6 5 4 4 3
9 10 9 9 9 12 14 13 13 11 13 13 13 13 13 13 13 12 12 10 10 12 13 13 10 11 14 12 10 10 9 8 11 11 12 12 13 10 9 8 6 5 5 4 3
8 9 10 10 11 10 12 13 13 11 11 12 11 14 15 12 12 12 11 9 10 11 11 12 11 10 11 11 10 11 10 8 9 11 13 13 10 9 9 8 7 6 5 4 3
7 7 6 9 10 10 11 11 12 11 11 10 11 11 12 12 11 11 11 10 10 8 9 8 9 8 7 8 9 8 9 8 9 9 8 8 8 9 8 7 6 5 5 4 3
3 4 6 8 8 10 11 9 10 11 9 10 11 10 11 12 11 8 9 9 9 9 8 8 6 6 10 5 7 8 7 8 8 7 10 8 10 3 6 5 4 4 3 3 3

GFSSW_925_temp_033.txt.gz
Temp
17 18 18 18 18 18 18 19 19 19 19 19 19 20 20 21 21 21 21 22 22 22 22 22 23 22 22 18 17 15 17 18 20 19 22 20 22 21 19 21 20 19 17 13 14
17 17 17 17 17 18 18 17 18 18 18 19 19 20 20 21 21 20 21 21 22 22 22 22 20 21 17 19 17 17 17 20 19 19 21 20 21 20 21 19 20 19 14 12 13
16 16 16 17 16 16 17 16 17 18 18 19 19 20 20 21 20 21 21 21 21 21 22 22 21 20 20 19 18 17 19 19 20 20 20 20 20 19 20 20 19 18 14 10 9
17 17 16 16 16 15 15 15 16 18 18 18 19 19 20 21 22 21 21 21 21 21 21 21 19 20 19 20 18 21 19 19 20 20 19 20 19 20 19 17 12 10 9 8 8
16 17 16 16 16 15 15 15 16 17 18 18 19 19 20 19 20 21 21 21 21 21 21 19 20 19 20 19 19 19 19 18 19 18 18 18 19 19 17 11 10 9 8 7 7
16 16 16 16 15 15 15 15 16 16 17 18 18 19 19 19 20 20 21 21 21 21 20 20 18 18 18 19 19 19 19 18 17 18 18 18 18 18 14 10 9 8 7 6 6
13 14 14 14 14 15 15 15 15 16 17 17 18 18 17 18 19 19 20 20 20 20 19 20 20 20 18 18 18 18 19 17 19 18 19 16 18 17 14 10 9 7 6 6 5
12 12 13 13 14 14 14 15 15 16 17 17 18 17 16 19 18 18 19 19 19 20 20 19 20 17 18 17 16 18 16 18 19 18 18 18 20 17 12 12 9 7 6 6 5
12 12 12 13 13 13 14 14 15 16 16 16 16 17 17 18 17 18 18 19 19 19 19 19 18 15 17 16 16 14 17 16 18 18 18 19 19 16 13 12 9 7 6 6 6
12 12 12 12 13 13 13 14 14 15 15 15 15 16 16 17 17 17 18 18 17 17 17 16 13 13 13 15 17 16 16 15 16 18 18 18 17 14 13 11 8 6 6 6 5
11 12 12 12 12 12 13 14 14 13 13 16 16 17 16 16 16 16 17 17 16 16 16 14 15 15 15 15 17 15 16 17 16 17 18 16 16 16 10 8 7 6 6 6 5
11 11 12 12 12 12 12 12 15 15 14 14 14 15 16 17 16 15 17 17 16 15 13 14 14 15 15 14 16 15 16 15 15 15 16 15 15 14 10 9 8 6 6 6 5
11 11 12 12 11 12 12 13 15 15 14 15 13 14 14 16 16 14 15 14 15 13 13 14 17 13 15 14 14 14 14 14 16 15 14 15 14 12 8 7 6 6 5 5 5
12 11 11 11 11 12 12 14 14 15 13 14 14 14 14 15 16 14 15 15 14 14 12 14 15 15 14 15 14 14 13 14 15 15 15 14 15 14 9 7 6 5 5 4 4
12 12 11 11 13 12 14 14 15 15 13 15 13 14 13 15 13 13 14 15 13 13 14 15 13 14 14 14 14 15 12 13 14 13 14 13 13 13 9 10 7 5 4 4 3
12 12 11 11 11 13 14 14 15 15 14 14 12 13 14 14 13 12 14 14 13 14 14 14 14 13 14 13 14 11 12 11 10 11 11 13 14 13 12 12 7 6 5 4 3
12 11 11 11 12 13 13 14 14 14 16 13 12 12 13 12 12 13 12 12 12 12 12 14 14 14 14 13 13 13 13 13 13 11 13 11 12 14 13 10 9 7 5 4 3
12 12 11 11 12 13 12 12 14 16 14 12 12 11 13 12 13 12 11 11 11 13 11 12 14 13 13 14 13 11 14 13 13 12 12 10 12 14 9 6 6 6 6 4 3
12 12 11 11 12 13 12 14 14 14 15 13 13 12 12 12 12 11 10 11 13 12 16 12 13 13 13 13 14 13 13 13 10 2 9 12 12 12 7 7 5 4 4 4 3
11 11 12 11 12 11 12 14 14 15 13 14 16 14 12 11 12 11 10 12 13 12 14 14 15 13 13 13 13 13 12 13 10 12 10 12 12 14 10 8 4 4 4 4 3
12 12 12 11 11 12 13 13 14 15 15 15 15 14 13 11 12 10 12 13 12 11 13 13 15 12 13 12 12 12 12 11 12 11 12 10 13 10 12 9 6 5 5 5 4
11 13 11 11 12 13 13 13 14 15 14 15 15 16 15 13 12 11 12 14 12 12 13 13 12 10 12 11 10 12 12 12 13 11 8 9 14 9 9 8 7 6 5 4 4
11 11 10 12 14 13 13 14 14 14 15 16 15 15 15 14 14 12 11 12 11 13 13 12 12 10 12 12 10 10 10 10 9 8 8 11 12 8 6 6 5 5 5 5 4
9 10 9 9 9 14 13 14 13 14 15 15 14 14 13 15 15 13 11 10 10 12 13 15 11 13 16 14 11 10 9 9 12 8 11 13 14 9 8 8 5 5 4 3 4
9 10 10 11 11 11 11 13 14 13 13 14 13 15 15 14 14 14 11 9 10 11 11 12 12 9 11 12 11 11 10 8 11 13 13 14 11 11 9 8 7 6 4 4 4
8 8 7 9 11 11 10 11 12 13 11 12 13 14 15 15 15 14 12 11 12 8 9 8 11 9 8 9 10 9 10 9 10 11 11 11 10 10 9 6 6 5 5 4 4
3 4 7 9 9 10 11 12 10 11 9 9 12 11 12 13 9 7 11 10 10 9 9 8 8 9 12 6 7 9 9 9 9 8 11 10 12 6 7 7 6 5 5 4 4